Regional Weather Roundup
Issued by NWS

Home | Current Version | Previous Version | Graphics & Text | Print | Product List | Glossary On
Versions: 1 2 3 4 5 6 7 8 9 10 11 12 13 14 15 16 17 18 19 20 21 22 23 24 25 26 27 28 29 30 31 32 33 34 35 36 37 38 39 40 41 42 43 44 45 46 47 48 49 50
000
ASUS43 KLOT 190412
RWRIL

ILLINOIS REGIONAL WEATHER ROUNDUP
NATIONAL WEATHER SERVICE CHICAGO/ROMEOVILLE IL
1000 PM CST WED JAN 18 2017

NOTE: "FAIR" INDICATES FEW OR NO CLOUDS BELOW 12,000 FEET WITH NO
SIGNIFICANT WEATHER AND/OR OBSTRUCTIONS TO VISIBILITY.

* THESE STATIONS ARE NOT UNDER NWS QUALITY CONTROL. THEY ALSO MAY NOT
  REPORT WEATHER SUCH AS PRECIPITATION OR FOG.

ILZ001-002-007-009-015-016-024-190500-
NORTHWEST ILLINOIS

CITY           SKY/WX    TMP DP  RH WIND       PRES   REMARKS
MOLINE         CLEAR     29  27  92 CALM      30.03S FOG
STERLING*      CLEAR     32  31  96 SE3       30.04S
SAVANNA*       FOG       29  29  99 S3        30.03S VSB 1/2
$$

ILZ003-004-008-010-011-017-018-190500-
NORTH CENTRAL ILLINOIS

CITY           SKY/WX    TMP DP  RH WIND       PRES   REMARKS
ROCKFORD       CLEAR     32  29  88 S6        30.05S FOG     WCI  26
FREEPORT*      CLEAR     32  31  97 S6        30.03F FOG     WCI  26
ROCHELLE*      CLEAR     32  32  99 SE6       30.04F FOG     WCI  26
DE KALB*       CLEAR     30  29  99 S6        30.05R FOG     WCI  24
$$

ILZ005-006-012>014-019>023-190500-
NORTHEAST ILLINOIS

CITY           SKY/WX    TMP DP  RH WIND       PRES   REMARKS
CHICAGO-OHARE  CLOUDY    34  31  88 SW3       30.04F
CHICAGO-MIDWAY CLOUDY    34  31  88 SW10      30.06S WCI  26
AURORA         CLOUDY    32  30  92 CALM      30.06S FOG
LANSING*       CLOUDY    35  34  96 SW8       30.08S WCI  29
JOLIET*        CLOUDY    32  32  99 CALM      30.07S FOG
WAUKEGAN       CLOUDY    34  31  88 SW10      30.03S FOG     WCI  26
DUPAGE AIRPORT CLOUDY    32  29  88 S6        30.05S FOG     WCI  26
KANKAKEE*      CLOUDY    34  33  94 CALM      30.09F
WHEELING       CLOUDY    35  31  85 SW7       30.06S WCI  29
MORRIS*        CLEAR     32  31  95 CALM      30.06S FOG
ROMEOVILLE*    CLOUDY    32  32 100 CALM      30.07S FOG
NORTHERLY ISL    N/A     36  33  89 W8          N/A  WCI  30
$$

LMZ740>746-190500-
SOUTHERN LAKE MICHIGAN

STATION/POSITION SKY/WX   TEMP    WIND        PRES    VSBY  WAVE
                          AIR SEA DIR/SP/G                  HT/PER
                          (F)     (DEG/KT/KT) (MB)    (MI)  (FT/S)
HARRISON CRIB              37     210/ 19/ 20   N/A
BURNHAM HARBOR             36     240/  6/ 10   N/A
CALUMET HARBOR             36     190/  9/ 11 1017.5F
BURNS HARBOR               37     220/ 13/ 16 1019.0F
$$

ILZ025>027-034>036-040-047-049-050-058-095>099-190500-
WEST-CENTRAL ILLINOIS

CITY           SKY/WX    TMP DP  RH WIND       PRES   REMARKS
QUINCY         CLEAR     34  32  92 SE7       30.03S WCI  28
GALESBURG*     CLEAR     32  32 100 SE5       30.04S WCI  28
MACOMB*        CLOUDY    31  31 100 SE3       30.07S FOG
JACKSONVILLE*  CLOUDY    37  33  88 SE7       30.07S WCI  31
PITTSFIELD*    CLOUDY    35  32  89 SE3       30.06F
$$

ILZ028>032-037-038-041>044-048-051>054-059>061-190500-
CENTRAL ILLINOIS

CITY           SKY/WX    TMP DP  RH WIND       PRES   REMARKS
PONTIAC        CLOUDY    33  33 100 S6        30.08F FOG     WCI  28
BLOOMINGTON    CLOUDY    32  31  96 S9        30.08S FOG     WCI  24
DECATUR        CLOUDY    33  33 100 SE5       30.10R WCI  29
PEORIA         CLEAR     34  33  96 CALM      30.07S
LACON*         CLEAR     30  30  99 S3        30.06F FOG
LINCOLN*       CLOUDY    35  35  99 S5        30.08F FOG     WCI  31
SPRINGFIELD    CLOUDY    39  35  86 S7        30.08S WCI  34
TAYLORVILLE    CLOUDY    38  36  92 S7        30.09S WCI  32
$$

ILZ033-039-045-046-055>057-062-063-190500-
EAST-CENTRAL ILLINOIS

CITY           SKY/WX    TMP DP  RH WIND       PRES   REMARKS
CHAMPAIGN      CLOUDY    34  32  92 S9        30.10F FOG     WCI  27
RANTOUL*       CLOUDY    35  34  98 S5        30.10S FOG     WCI  31
MATTOON        CLOUDY    35  34  96 SE5       30.10S WCI  31
PARIS*         CLOUDY    35  35  97 S6        30.12F WCI  30
$$

ILZ079-100>102-190500-
SOUTHWEST ILLINOIS

CITY           SKY/WX    TMP DP  RH WIND       PRES   REMARKS
ALTON          CLEAR     37  36  93 S8        30.08S WCI  31
BELLEVILLE     CLOUDY    40  40  99 SE3       30.06F
CAHOKIA*       CLOUDY    42  36  79 SE7       30.07F
SPARTA*        MOCLDY    40  37  87 CALM      30.09F
$$

ILZ064>066-069>071-074>076-080>082-084>086-088>090-092>094-190500-
SOUTH-CENTRAL ILLINOIS

CITY           SKY/WX    TMP DP  RH WIND       PRES   REMARKS
CARBONDALE     CLOUDY    42  40  92 E3        30.09F
CAIRO*         CLOUDY    43  41  92 E5        30.07F
EFFINGHAM*     CLOUDY    38  38 100 E5        30.12F WCI  34
MARION         CLOUDY    41  41 100 CALM      30.10F
MT. VERNON     MOCLDY    41  38  89 E6        30.10F
CENTRALIA*     MOCLDY    41  38  89 E3        30.09F
SALEM*         CLOUDY    41  37  84 CALM      30.10S
METROPOLIS*    CLOUDY    43  40  90 CALM      30.09F
$$

ILZ067-068-072-073-078-083-087-091-190500-
SOUTHEAST ILLINOIS

CITY           SKY/WX    TMP DP  RH WIND       PRES   REMARKS
LAWRENCEVILLE  CLOUDY    37  36  96 E3        30.14S
FLORA*         CLOUDY    39  37  91 SE5       30.12F
FAIRFIELD*     MOCLDY    39  37  93 CALM      30.10F
HARRISBURG*    MOCLDY    42  40  93 CALM      30.12F
ROBINSON*      CLOUDY    35  34  97 S3        30.15S FOG
CARMI*         MOCLDY    39  38  97 CALM      30.12F
$$

ABBREVIATIONS USED IN REMARKS
   TC - TEMPERATURE IN CELSIUS
  WCI - WIND CHILL INDEX
   HX - HEAT INDEX
  VSB - VISIBILITY
$$




USA.gov is the U.S. government's official web portal to all federal, state and local government web resources and services.